SCP
0 0 0 0 0 0 0 0 0 0 0 0 0 0 0 0 0 0 0 0 0 0 0 0 0 0 0 0 0 1 1 1 2 2 2 2 1 1 1 0 0 0 0 0
0 0 0 0 0 0 0 0 0 0 0 0 0 0 0 0 0 0 0 0 0 0 0 0 0 0 0 0 0 0 1 1 1 2 2 2 1 1 1 0 0 0 0 0
0 0 0 0 0 0 0 0 0 0 0 0 0 0 0 0 0 0 0 0 0 0 0 0 0 0 0 0 0 0 0 0 1 1 1 1 1 1 1 1 0 0 0 0
0 0 0 0 0 0 0 0 0 0 0 0 0 0 0 0 0 0 0 0 0 0 0 0 0 0 0 0 0 0 0 0 0 1 1 1 1 1 1 1 1 0 0 0
0 0 0 0 0 0 0 0 0 0 0 0 0 0 0 0 0 0 0 0 0 0 0 0 0 0 0 0 0 0 0 0 0 0 1 1 1 1 1 1 1 1 1 0
0 0 0 0 0 0 0 0 0 0 0 0 0 0 0 0 0 0 0 0 0 0 0 0 0 0 0 0 0 0 0 0 0 0 1 1 1 1 1 1 1 1 1 1
0 0 0 0 0 0 0 0 0 0 0 0 0 0 0 0 0 0 0 0 0 0 0 0 0 0 0 0 0 0 0 0 0 0 1 1 1 1 1 1 1 1 1 1
0 0 0 0 0 0 0 0 0 0 0 0 0 0 0 0 0 0 0 0 0 0 0 0 0 0 0 0 0 0 0 0 0 0 0 1 1 1 1 1 1 1 1 1
0 0 0 0 0 0 0 0 0 0 0 0 0 0 0 0 0 0 0 0 0 0 0 0 0 0 0 0 0 0 0 0 0 0 0 0 1 1 1 1 1 1 1 1
0 0 0 0 0 0 0 0 0 0 0 0 0 0 0 0 0 0 0 0 0 0 0 0 0 0 0 0 0 0 0 0 0 0 0 0 1 1 1 1 1 1 1 1
0 0 0 0 0 0 0 0 0 0 0 0 0 0 0 0 0 0 0 0 0 0 0 0 0 0 0 0 0 0 0 0 0 0 0 0 0 1 1 1 1 0 0 1
0 0 0 0 0 0 0 0 0 0 0 0 0 0 0 0 0 0 0 0 0 0 0 0 0 0 0 0 0 0 0 0 0 0 0 0 0 1 1 1 1 0 0 1
0 0 0 0 0 0 0 0 0 0 0 0 0 0 0 0 0 0 0 0 0 0 0 0 0 0 0 0 0 0 0 0 0 0 0 0 0 0 1 1 1 1 1 1
0 0 0 0 0 0 0 0 0 0 0 0 0 0 0 0 0 0 0 0 0 0 0 0 0 0 0 0 0 0 0 0 0 0 0 0 0 0 1 1 1 1 1 1
0 0 0 0 0 0 0 0 0 0 0 0 0 0 0 0 0 0 0 0 0 0 0 0 0 0 0 0 0 0 0 0 0 0 0 0 0 0 1 1 1 1 1 1
0 0 0 0 0 0 0 0 0 0 0 0 0 0 0 0 0 0 0 0 0 0 0 0 0 0 0 0 0 0 0 0 0 0 0 0 0 0 0 0 0 0 0 0
0 0 0 0 0 0 0 0 0 0 0 0 0 0 0 0 0 0 0 0 0 0 0 0 0 0 0 0 0 0 0 0 0 0 0 0 0 0 0 0 0 0 0 0
0 0 0 0 0 0 0 0 0 0 0 0 0 0 0 0 0 0 0 0 0 0 0 0 0 0 0 0 0 0 0 0 0 0 0 0 0 0 0 0 0 0 0 0
0 0 0 0 0 0 0 0 0 0 0 0 0 0 0 0 0 0 0 0 0 0 0 0 0 0 0 0 0 0 0 0 0 0 0 0 0 0 0 0 0 0 0 0
0 0 0 0 0 0 0 0 0 0 0 0 0 0 0 0 0 0 0 0 0 0 0 0 0 0 0 0 0 0 0 0 0 0 0 0 0 0 0 0 0 0 0 0
0 0 0 0 0 0 0 0 0 0 0 0 0 0 0 0 0 0 0 0 0 0 0 0 0 0 0 0 0 0 0 0 0 0 0 0 0 0 0 0 0 0 0 0
0 0 0 0 0 0 0 0 0 0 0 0 0 0 0 0 0 0 0 0 0 0 0 0 0 0 0 0 0 0 0 0 0 0 0 0 0 0 0 0 0 0 0 0
0 0 0 0 0 0 0 0 0 0 0 0 0 0 0 0 0 0 0 0 0 0 0 0 0 0 0 0 0 0 0 0 0 0 0 0 0 0 0 0 0 0 0 0
0 0 0 0 0 0 0 0 0 0 0 0 0 0 0 0 0 0 0 0 0 0 0 0 0 0 0 0 0 0 0 0 0 0 0 0 0 0 0 0 0 0 0 0
0 0 0 0 0 0 0 0 0 0 0 0 0 0 0 0 0 0 0 0 0 0 0 0 0 0 0 0 0 0 0 0 0 0 0 0 0 0 0 0 0 0 0 0
0 0 0 0 0 0 0 0 0 0 0 0 0 0 0 0 0 0 0 0 0 0 0 0 0 0 0 0 0 0 0 0 0 0 0 0 0 0 0 0 0 0 0 0
Wind_Speed
1 2 4 5 6 4 3 6 8 7 3 5 9 12 9 6 5 5 5 4 4 4 3 2 2 2 2 3 3 3 2 2 1 1 1 2 2 2 1 1 1 1 1 2
3 4 5 2 3 4 5 7 8 6 2 5 8 11 10 7 6 6 6 5 5 4 3 2 2 2 2 2 2 3 2 2 2 2 2 2 2 2 2 1 1 2 2 2
5 1 2 3 3 4 7 8 8 6 4 5 7 10 8 4 3 4 5 5 4 4 4 3 2 2 2 2 2 2 2 2 2 2 1 1 1 1 1 1 2 2 3 3
4 2 2 3 4 5 7 5 6 6 6 4 4 9 6 4 4 4 5 4 4 3 3 3 2 2 3 3 2 2 2 2 2 1 1 2 2 2 3 2 2 2 2 2
3 2 3 4 4 5 3 2 4 5 5 6 5 8 7 1 6 6 4 4 4 3 3 3 3 3 3 2 2 2 2 2 2 1 1 2 2 2 2 2 2 2 2 2
2 1 2 3 2 2 1 0 1 2 4 7 7 8 8 3 5 4 2 3 3 2 2 3 3 3 2 2 2 2 2 2 2 2 2 2 2 2 2 2 2 2 2 2
2 2 1 1 1 2 2 2 2 3 4 6 2 7 8 2 3 4 4 3 3 3 3 3 3 2 2 3 2 2 2 3 3 2 2 3 3 3 3 3 2 2 2 2
3 3 2 2 3 3 4 4 4 4 5 4 3 8 5 1 3 3 4 3 3 3 3 3 3 3 3 3 3 3 3 3 3 3 3 3 3 2 3 3 3 3 2 2
4 3 0 1 1 3 4 5 3 2 2 5 7 6 5 3 4 3 2 2 3 3 3 3 3 3 3 3 3 3 3 3 3 3 3 3 3 3 3 3 3 3 2 2
3 3 2 1 1 1 2 3 3 4 4 7 7 7 5 4 5 3 2 2 2 3 3 3 3 3 3 3 3 3 3 3 3 3 3 3 3 4 3 3 3 3 3 2
2 3 2 2 5 5 4 4 4 4 4 5 7 5 1 3 3 3 3 2 2 3 3 3 3 3 3 3 3 3 3 3 3 3 3 3 3 3 3 3 3 3 2 2
2 2 4 4 1 2 5 6 7 5 5 6 7 7 1 2 2 2 3 3 3 3 3 3 3 3 3 3 3 3 3 3 3 3 3 3 3 3 3 3 3 3 3 2
3 3 2 2 3 2 4 5 5 4 3 6 8 8 1 2 3 3 4 4 4 4 4 3 3 3 3 3 3 3 3 3 3 3 3 2 3 3 3 3 3 3 2 2
2 4 7 9 6 4 6 6 7 7 7 8 12 13 9 8 8 7 6 5 5 4 4 4 4 4 4 3 3 3 3 3 3 3 3 3 3 2 3 3 3 3 2 2
2 5 6 8 7 5 8 10 11 12 12 12 13 14 15 11 9 9 7 6 5 5 5 5 5 5 4 4 4 4 3 3 3 3 3 3 3 2 2 2 2 2 2 2
2 4 3 6 6 6 10 13 14 14 14 15 15 17 12 9 7 8 8 6 6 7 6 6 6 5 5 4 4 4 4 3 3 3 3 3 2 2 2 2 2 2 2 2
4 3 4 6 5 6 12 13 13 11 10 11 14 13 8 8 9 9 8 7 7 7 7 6 6 6 5 4 4 4 4 3 3 3 3 2 2 2 2 2 2 2 2 2
5 4 3 3 3 11 7 2 8 11 12 12 12 11 9 9 8 7 6 6 6 7 7 7 5 5 5 4 4 4 3 3 3 3 3 2 2 2 2 2 2 2 2 2
7 6 4 4 8 12 8 5 6 8 10 9 12 11 9 7 7 6 3 3 5 5 6 5 5 4 4 4 4 3 3 3 3 3 3 3 2 2 2 2 2 2 2 3
4 5 5 5 7 11 5 2 3 4 8 3 5 6 5 4 6 4 3 4 5 5 4 4 4 3 3 3 3 3 3 3 4 4 4 4 3 3 3 3 3 2 2 2
6 6 8 9 10 11 3 2 4 6 4 1 2 3 3 4 5 5 4 5 5 5 4 4 4 3 3 3 3 3 3 4 5 5 4 3 3 3 3 3 2 2 2 2
10 9 10 8 10 12 4 6 7 3 2 1 1 3 4 5 5 5 4 5 5 5 4 4 3 4 3 3 3 4 4 5 5 5 4 3 3 3 2 2 2 2 2 2
10 9 7 10 8 1 4 4 2 0 1 2 3 3 3 5 5 5 4 4 4 4 4 4 4 4 4 3 3 4 5 5 5 4 4 3 3 2 2 2 2 2 2 2
6 3 5 7 8 5 5 4 3 2 3 3 3 3 3 5 5 5 4 4 4 4 3 4 4 4 5 4 4 4 5 5 4 4 4 3 2 2 2 2 1 1 2 2
5 5 5 7 6 5 6 6 5 3 3 3 4 4 4 5 6 6 5 4 4 3 3 3 4 4 5 5 5 4 4 4 4 4 3 3 2 2 2 2 2 2 2 3
7 8 9 8 6 6 4 3 3 4 4 5 4 5 4 4 6 6 5 4 3 4 3 4 4 5 5 5 5 5 4 3 3 3 3 2 2 2 2 2 2 3 4 5
Wind_Direction
106 176 213 220 228 259 254 249 263 273 281 266 261 270 278 281 274 275 278 277 271 273 294 328 338 345 345 347 344 332 319 326 323 279 258 247 242 231 230 244 255 247 237 221
159 232 250 247 224 231 238 251 267 280 260 259 275 275 274 269 263 266 270 271 276 283 296 321 333 353 347 341 337 332 314 302 290 282 267 267 257 239 237 247 252 254 244 230
205 270 233 205 209 229 242 245 260 273 296 253 278 270 249 237 252 269 267 269 273 276 285 294 301 307 316 321 319 325 330 319 303 290 276 302 271 260 251 261 253 253 249 235
229 259 197 209 232 235 252 251 255 261 266 267 273 282 267 249 258 264 264 265 270 276 277 287 286 285 289 300 312 316 323 326 324 303 265 241 243 246 245 246 244 247 243 242
221 232 215 230 251 229 257 280 247 249 247 266 241 260 275 223 267 269 263 258 263 274 279 286 288 288 292 303 312 318 328 329 323 305 283 259 269 277 266 245 238 240 239 239
254 262 258 261 280 212 170 204 189 215 230 254 241 240 273 226 260 274 279 273 278 296 298 298 307 315 313 320 325 329 329 330 327 313 296 278 275 290 292 265 248 245 246 240
243 211 214 236 166 156 192 210 243 231 223 244 191 235 261 263 264 276 285 297 306 317 312 314 319 316 319 325 329 329 331 329 327 314 298 287 279 275 272 263 249 244 244 254
225 240 194 209 214 206 205 219 226 253 257 272 208 241 256 272 283 284 285 295 318 320 321 313 311 306 304 309 319 325 316 312 316 309 298 287 280 273 273 269 264 251 250 248
216 241 121 248 265 197 186 211 251 255 289 271 251 256 263 249 261 260 277 303 316 319 315 312 314 311 309 305 309 307 310 309 304 299 293 287 281 276 278 277 265 258 261 263
205 237 246 235 181 196 245 173 179 207 240 259 264 256 257 246 252 251 264 297 319 322 318 316 316 319 317 310 307 309 305 305 312 307 296 294 284 278 278 274 268 268 266 263
213 209 230 202 208 210 181 188 207 209 236 252 270 265 205 243 241 249 260 288 310 316 315 318 321 318 317 315 310 309 307 307 308 310 304 300 291 285 279 274 271 269 267 259
198 213 245 243 240 269 225 216 203 217 224 230 259 268 92 287 286 266 285 307 317 318 316 320 318 319 318 308 306 305 305 302 301 302 298 294 301 294 280 276 275 273 266 259
169 184 237 256 207 195 225 220 222 232 226 227 241 258 131 285 283 280 288 301 310 312 314 316 317 315 311 304 303 301 298 299 303 303 299 299 304 303 294 288 282 272 263 257
195 211 227 245 263 205 227 226 214 210 224 236 240 259 270 277 284 293 296 293 294 295 296 301 308 313 313 310 304 300 299 301 305 305 298 295 298 294 297 300 300 296 283 261
209 235 244 268 275 254 249 241 226 225 233 241 254 258 269 277 282 286 287 287 289 293 295 295 302 310 317 318 310 306 302 304 305 298 293 295 298 298 304 314 317 311 305 289
201 233 254 273 266 264 262 252 238 238 242 249 262 267 273 280 279 281 282 279 281 287 293 297 301 306 309 310 307 304 300 296 292 289 290 301 303 308 312 317 322 321 309 300
196 199 237 263 288 285 258 240 225 228 227 230 245 259 273 272 272 278 282 282 279 285 289 292 294 296 300 302 300 296 295 294 286 286 296 300 301 298 303 311 314 315 310 306
204 208 228 259 258 245 252 212 216 229 239 234 247 262 266 271 284 289 289 282 284 290 291 293 295 297 304 310 304 302 300 291 287 290 299 299 296 298 303 301 299 305 303 303
213 203 206 219 248 267 269 222 202 222 253 237 245 257 269 287 288 274 297 308 299 300 299 296 298 299 306 314 319 313 307 296 287 288 293 293 284 285 287 283 287 293 295 300
201 200 203 212 237 249 262 177 195 208 256 222 227 249 271 285 273 288 11 339 324 322 319 317 318 318 314 320 323 314 314 310 302 301 296 291 278 268 268 274 282 289 288 296
189 201 214 223 242 260 270 156 159 208 270 101 217 257 262 255 279 320 329 329 326 323 325 327 322 319 321 329 324 307 311 311 312 310 304 295 282 273 270 279 287 291 299 306
198 198 208 208 230 247 159 162 204 251 23 52 297 291 280 282 294 304 314 320 324 327 334 335 329 328 334 338 328 316 315 318 319 315 311 303 293 285 284 287 296 294 285 284
220 216 209 209 227 334 162 191 216 331 251 281 287 290 281 284 289 298 302 307 313 318 326 328 323 321 328 334 325 311 315 322 319 316 314 312 314 309 302 284 282 287 282 277
235 241 227 244 251 241 224 231 247 242 254 271 274 277 275 280 285 290 293 298 304 311 320 323 319 315 317 323 320 309 312 317 312 306 308 313 316 314 314 297 281 274 271 271
230 204 226 250 262 265 241 229 236 250 268 274 274 272 273 276 284 286 287 290 295 305 310 308 303 301 305 312 312 310 310 310 303 299 302 308 308 307 310 301 298 282 283 275
214 210 213 234 223 226 245 222 219 234 250 256 261 272 279 273 278 285 283 285 290 292 296 296 294 292 297 304 303 304 306 301 293 296 302 300 299 302 298 302 319 319 298 311